COSMOS 1275 DEB, 13467

Orbit data source: Space-Track

COSMOS 1275 DEB, 13467 is space debris in LEO originally from a launch on Thu, 04 Jun 1981 UTC launched from the Plesetsk Missile And Space Complex (PKMTR). Debris objects in space refer to the collection of defunct objects orbiting the Earth. Examples of debris include non-operational satellites, rocket bodies, and fragments generated from explosions, collisions, or faulty payload assembly.

Loading next visibility...
Identifier
13467, 1981-053FP
Orbit
LEO
Country
Flag of CISCIS
Related business
Manufacturer
Unknown
Mission
Spacecraft
Bus & Motor
Unknown
Mass
Unknown
Launch date (UTC)
1981-06-04 (45 years ago)
Launch vehicle
Unknown
Launch site
Plesetsk Missile And Space Complex (PKMTR)
Object type
Payload
Rocket body
Debris
Shape & HBR
Unknown shape, 0.1 m
Radar Cross Section
Small (<0.1 m²)

Expand to show TLE details & history
Last TLE update: 1 day ago

TLE from 1 day ago
0 COSMOS 1275 DEB
1 13467U 81053FP  26106.46336707  .00004263  00000-0  94201-3 0  9993
2 13467  82.9379 279.2005 0016356 106.3496 283.6545 14.57026387280237
Epoch: 2026-04-16T11:07Z
TLE epoch observation values (Epoch: 2026-04-16T11:07:14.914Z)
Latitude
29.62331°
Longitude
-88.2045°
Altitude
703.851 km
Speed
7.508 km/s
True Right ascension
18h 52m 52s
True Declination
29° 28' 29"
Sunlit
Object was in daylight at epoch
Visualization orbit readout
Latitude
Unknown
Longitude
Unknown
Altitude
Unknown
Speed
Unknown
Apparent Right ascension
Unknown
Apparent Declination
Unknown
Sunlit
N/A
Visualization observer readout
Local Sidereal Time
01:15:15
Azimuth
Unknown
Elevation
Unknown
Doppler factor
Unknown
Orbital elements
Apogee altitude
711.405 km
Perigee altitude
688.252 km
Semi-major axis
7,077.965 km
Eccentricity
0.00164
Inclination
82.9379°
RAAN
279.2005°
Arg. of periapsis
106.3496°
True anomaly
283.47228°
Mean anomaly
283.6545°
Eccentric anomaly
283.5634°
Mean motion
3.64486 °/min
Orbital period
98.77 mins
BSTAR
0.00094201
Loading maneuver chart data...
Computing Atmospheric mass density...
Loading historical data...
Loading historical data...
Loading historical data...
Loading historical data...
Loading historical data...
Loading historical data...
Loading historical data...

Documentation

Showing up to 5 results
|